Location: Casa Mangolini
(44.8586°N, 12.2411°E)
Time: 07:58:50
(UTC+00:00)

Daily predictions for brighter satellites

Satellite Brightness Start Highest point End
(mag) Time Altitude Azimuth Time Altitude Azimuth Time Altitude Azimuth
SMAP 3.0 16:24:14 10° SSE 16:28:52 75° ENE 16:33:31 10° N
Cosmos 2219 3.5 16:23:22 10° NNW 16:28:57 49° ENE 16:34:31 10° SE
Cosmos 1331 Rocket 4.0 16:24:32 10° SSW 16:29:41 90° SE 16:34:53 10° NNE
ATLAS 5 CENTAUR R/B 4.1 16:27:41 10° NW 16:29:42 13° NNW 16:31:50 10° N
USA 215 4.4 16:24:31 10° NE 16:30:05 31° N 16:35:40 10° WNW
FALCON 9 DEB 3.3 16:28:31 10° WSW 16:31:44 63° NNW 16:34:57 10° NE
ATLAS 2AS CENTAUR R/B 4.2 16:26:47 10° NNW 16:32:36 22° NNE 16:38:08 10° ENE
Cosmos 2266 Rocket 4.4 16:26:28 10° NNW 16:32:42 72° W 16:39:00 10° S
FALCON 9 DEB 3.4 16:30:35 10° WSW 16:33:45 57° NNW 16:36:54 10° NE
Lacrosse 5 3.6 16:32:14 10° NW 16:36:03 21° N 16:39:51 10° NE
AQUARIUS 4.1 16:32:39 10° SSE 16:37:08 79° ENE 16:41:39 10° N
Cosmos 1953 Rocket 3.6 16:35:26 10° N 16:39:51 66° E 16:44:16 10° SSE
Cosmos 1656 4.0 16:34:57 10° S 16:40:12 45° ESE 16:45:34 10° NE
Cosmos 968 Rocket 4.0 16:38:50 10° N 16:43:43 38° ENE 16:48:31 10° SE
Cosmos 1408 4.1 16:42:03 10° NNE 16:44:33 17° ENE 16:47:03 10° ESE
Cosmos 2058 Rocket 3.3 16:41:32 10° SSE 16:45:50 48° E 16:50:12 10° NNE
NOAA 12 4.3 16:41:44 10° SSE 16:47:02 82° WSW 16:52:23 10° NNW
Feng Yun 1-1 Rocket 4.5 16:41:18 10° SE 16:47:03 56° ENE 16:52:51 10° N
FALCON 9 DEB 3.7 16:45:16 10° WSW 16:48:26 47° NNW 16:51:35 10° NE
CZ-4B R/B 3.7 16:42:55 10° S 16:48:30 69° WSW 16:54:00 10° NNW
ADEOS Rocket 3.9 16:45:25 10° N 16:51:49 60° WNW 16:58:52 10° SSW
USA 281 3.4 16:45:49 10° SSE 16:52:22 80° WSW 16:58:59 10° NNW
Cosmos 1689 Rocket 3.0 16:51:31 10° NE 16:54:03 26° E 16:56:32 10° SSE
IRS-1C Rocket 4.3 16:50:29 10° SE 16:55:33 51° ENE 17:00:39 10° N
FALCON 9 DEB 4.0 16:55:00 10° W 16:58:03 39° NNW 17:00:47 12° NE
CZ-4C R/B 4.2 16:55:16 10° NNW 16:59:51 19° NNE 17:04:27 11° ENE
Cosmos 2227 Rocket 2.2 16:54:26 10° NNW 17:00:05 64° ENE 17:05:41 10° SE
Cosmos 1939 Rocket 3.0 16:56:55 10° SSE 17:00:44 49° ENE 17:04:32 10° N
Cosmos 1892 3.1 16:57:03 10° N 17:00:44 40° ENE 17:04:24 10° SSE
Cosmos 2263 Rocket 3.8 16:58:20 10° N 17:01:31 15° NE 17:03:25 13° ENE
Cosmos 1302 Rocket 4.0 16:57:02 10° SSW 17:02:18 89° E 17:07:38 10° NNE
H-2A R/B 4.0 17:02:40 10° N 17:06:18 30° WNW 17:09:52 10° SW
USA 307 3.3 17:03:14 10° NW 17:07:25 47° NNE 17:10:17 18° E
COSMO-SKYMED 1 2.6 17:04:04 10° NNE 17:08:21 55° E 17:12:36 10° S
SAR-Lupe-4 3.4 17:06:25 10° NNE 17:10:01 75° ESE 17:13:35 10° S
Cosmos 1300 3.7 17:06:22 10° SSW 17:10:04 50° WNW 17:13:49 10° N
Cosmos 1400 Rocket 2.9 17:07:36 10° SSW 17:11:43 84° WNW 17:15:49 10° N
USA 308 3.2 17:08:12 10° NW 17:12:23 50° NNE 17:15:04 20° E
Cosmos 1697 Rocket 3.0 17:08:02 10° S 17:13:20 45° ESE 17:18:40 10° NE
Cosmos 1486 Rocket 4.0 17:08:07 10° NNW 17:13:28 71° ENE 17:18:46 10° SSE
CZ-4B R/B 2.2 17:10:52 10° N 17:13:59 49° WNW 17:17:00 10° SSW
Cosmos 1825 3.1 17:13:08 10° NNE 17:16:22 26° ENE 17:17:29 22° ESE
ERS-2 3.3 17:14:15 10° N 17:17:45 45° WNW 17:21:14 10° SW
Helios 1A Rocket 3.0 17:14:02 10° SSE 17:18:02 53° ENE 17:22:02 10° N
Meteor 2-8 Rocket 4.4 17:13:44 10° S 17:19:51 88° ESE 17:26:03 10° N
YAOGAN 1 3.0 17:16:23 10° SE 17:20:25 40° ENE 17:24:29 10° N
S3M 4.0 17:15:10 10° SSE 17:21:04 54° E 17:27:03 10° NNE
CZ-4 R/B 4.4 17:17:17 10° SSE 17:21:25 67° ENE 17:25:34 10° N
BREEZE-M TANK 3.0 17:14:37 10° W 17:22:56 89° N 17:24:59 25° E
Cosmos 1503 Rocket 4.2 17:18:34 10° NNW 17:23:40 50° ENE 17:28:46 10° SE
Atlas Centaur 2 4.3 17:17:11 10° SW 17:23:56 28° S 17:30:05 13° ESE
CZ-2D R/B 3.1 17:22:17 10° SSE 17:26:04 71° ENE 17:29:53 10° N
Cosmos 1812 Rocket 4.0 17:22:35 10° SSE 17:26:38 37° E 17:30:40 10° NNE
Meteor 2-1 Rocket 4.2 17:21:42 10° S 17:27:03 54° E 17:32:26 10° NNE
Okean O Rocket 3.9 17:23:43 10° SSW 17:27:28 28° W 17:31:13 10° NW
Cosmos 1340 3.3 17:23:50 10° NNW 17:27:33 59° W 17:31:16 10° S
SAR-Lupe-1 4.3 17:24:17 10° N 17:27:51 69° WNW 17:31:22 10° SSW
CZ-4 R/B 1.3 17:25:05 10° SSE 17:28:53 55° ENE 17:32:40 10° N
Cosmos 1417 Rocket 4.4 17:25:01 10° S 17:31:16 80° E 17:37:37 10° N
Aureole 3 4.3 17:32:10 10° SSW 17:35:02 36° WNW 17:37:49 10° N
Cosmos 1346 Rocket 2.6 17:31:26 10° N 17:35:27 78° E 17:39:25 10° SSE
SL-4 R/B 2.5 17:32:22 10° NW 17:35:46 38° NNE 17:36:33 33° NE
Cosmos 2058 2.7 17:32:06 10° N 17:36:13 75° E 17:40:18 10° SSE
Cosmos 1354 Rocket 4.1 17:31:18 10° NNW 17:36:30 56° ENE 17:41:00 14° SE
Cosmos 1980 Rocket 2.7 17:31:53 10° S 17:36:59 37° ESE 17:39:22 26° ENE
Cosmos 1992 Rocket 3.9 17:33:38 10° SSW 17:38:50 77° ESE 17:44:03 10° NNE
Cosmos 2151 4.4 17:35:32 10° NNE 17:37:30 21° NE 17:37:30 21° NE
Cosmos 2297 Rocket 3.0 17:34:01 10° NW 17:39:32 54° WSW 17:45:00 10° S
PSLV R/B 4.0 17:36:14 10° NNE 17:40:25 82° WNW 17:44:33 10° SSW
Meteor 2-15 Rocket 4.4 17:35:31 10° S 17:41:35 69° E 17:47:43 10° NNE
CZ-2C R/B 3.2 17:36:47 10° SSE 17:42:31 70° ENE 17:48:06 10° N
Timation 1 Rocket 4.4 17:36:51 10° NNW 17:42:45 54° ENE 17:46:16 24° SE
CSL-04 Debris 4.3 17:37:49 10° SE 17:43:05 53° ENE 17:48:25 10° N
Cosmos 1315 Rocket 2.6 17:41:32 10° S 17:45:28 80° E 17:49:30 10° NNE
NOAA 15 4.5 17:43:20 10° SSE 17:48:38 81° ENE 17:53:58 10° NNW
Cosmos 1553 Rocket 4.3 17:43:08 10° SSW 17:49:27 69° W 17:55:42 10° N
CRYOSAT 2 4.2 17:46:00 10° N 17:50:51 65° E 17:55:40 10° S
Cosmos 220 Rocket 4.3 17:47:07 10° SSW 17:51:27 70° WNW 17:55:51 10° NNE
Geosat 4.1 17:52:54 36° ENE 17:54:36 51° ESE 17:59:29 10° S
Meteor 2-10 Rocket 3.7 17:50:03 10° SSW 17:55:20 75° WNW 18:00:28 10° N
BREEZE-M R/B 3.8 17:51:55 10° WNW 17:56:05 66° NNE 17:59:00 36° E
USA 305 2.8 17:52:57 10° NW 17:57:17 87° SW 17:58:11 55° SE
Cosmos 1455 2.3 17:53:34 10° SSW 17:57:20 73° W 18:01:09 10° N
Cosmos 2360 4.1 17:54:26 10° SSW 18:00:10 81° ESE 18:04:36 18° NNE
SeaSat 1 3.1 18:00:38 37° NE 18:00:38 37° NE 18:04:55 10° NNW
H-2A R/B 2.0 17:57:35 10° SSE 18:02:59 74° ENE 18:08:27 10° N
NOSS 3-4 (A) 4.0 17:56:31 10° NNW 18:03:16 52° NE 18:05:39 39° E
NOSS 3-4 (C) 4.0 17:56:37 10° NNW 18:03:22 51° NE 18:05:43 39° E
USA 306 2.9 17:59:29 10° WNW 18:03:46 79° SW 18:04:25 62° SSE
Okean-O 3.3 18:00:10 10° S 18:04:30 56° W 18:08:53 10° NNW
MOS 1 Rocket 3.2 18:04:16 10° NNE 18:09:02 80° ESE 18:14:05 10° S
Cosmos 2278 3.6 18:04:46 10° SSW 18:10:25 72° ESE 18:12:45 36° NE
NOSS 3-3 (A) 4.1 18:05:53 10° SW 18:11:42 70° NW 18:16:10 21° NNE
NOSS 3-3 (C) 4.1 18:06:00 10° SW 18:11:49 71° NW 18:16:14 22° NNE
USA 215 4.1 18:10:10 31° NE 18:12:03 37° NNE 18:17:56 10° NW
GEOS 3 Rocket 3.6 18:17:20 61° E 18:17:55 66° NE 18:23:17 10° NNW
ARGOS 3.0 18:17:21 49° SE 18:18:51 75° ENE 18:24:17 10° N
Cosmos 44 Rocket 3.2 18:14:21 10° SW 18:19:07 80° WNW 18:19:58 60° NNE
Cosmos 1408 4.4 18:16:22 10° NNW 18:19:39 31° W 18:22:56 10° SSW
Cosmos 2082 4.3 18:14:48 10° NNW 18:20:25 56° WSW 18:25:53 10° S
Lacrosse 5 3.2 18:16:09 10° NW 18:20:11 27° NNE 18:20:11 27° NNE
Meteor 2-3 Rocket 4.2 18:15:11 10° N 18:19:36 44° NE 18:19:36 44° NE
ATLAS 2AS CENTAUR R/B 2.9 18:17:59 10° NNW 18:25:23 55° NE 18:26:17 52° ENE
Cosmos 2369 4.4 18:29:28 10° SW 18:35:02 51° WNW 18:39:11 18° NNE
Cosmos 967 Rocket 4.4 18:30:31 10° SSW 18:36:34 69° SE 18:36:34 69° SE
Cosmos 1777 Rocket 4.4 18:34:36 10° NNW 18:38:35 53° N 18:38:35 53° N
CSL-04 Rocket 4.3 18:34:53 10° S 18:40:19 56° W 18:45:45 10° NNW
Cosmos 1709 Rocket 4.5 18:39:52 10° NNW 18:46:08 60° W 18:52:22 10° S
Cosmos 2263 Rocket 2.7 18:40:49 10° NNW 18:45:07 51° N 18:45:07 51° N
USA 307 4.5 18:43:26 10° WNW 18:46:28 33° WSW 18:46:28 33° WSW
CZ-4C R/B 3.3 18:43:27 10° NNW 18:49:38 45° NNE 18:49:38 45° NNE
Cosmos 1697 Rocket 4.3 18:52:29 10° WSW 18:57:27 31° NW 19:01:26 15° N
Atlas Centaur 2 4.3 19:05:55 10° WSW 19:12:40 27° S 19:12:40 27° S
Cosmos 1980 Rocket 3.5 19:15:48 10° WSW 19:20:58 37° NW 19:21:13 36° NW
USA 215 4.5 19:57:31 35° NW 19:57:31 35° NW 20:01:04 10° NW
ATLAS 2AS CENTAUR R/B 4.3 20:09:27 10° NW 20:13:44 30° WNW 20:13:44 30° WNW
